| time (UTC) | temp F | wind direction | speed knots | gust knots | rain 1hr in | rain 24hr in | rain mn in | humidity % | barometer mb |
| 20260504183101 | 75 | 0 | 0.0 | 2.6 | 0.00 | 0.00 | 0.00 | 37 | 1015.3 |
| 20260504181558 | 75 | 176 | 0.9 | 4.3 | 0.00 | 0.00 | 0.00 | 36 | 1015.6 |
| 20260504180132 | 75 | 0 | 0.0 | 4.3 | 0.00 | 0.00 | 0.00 | 37 | 1015.6 |
| 20260504174554 | 74 | 0 | 0.9 | 4.3 | 0.00 | 0.00 | 0.00 | 39 | 1015.7 |
| 20260504173058 | 75 | 0 | 0.0 | 7.0 | 0.00 | 0.00 | 0.00 | 38 | 1015.8 |
| 20260504171555 | 74 | 0 | 0.0 | 2.6 | 0.00 | 0.00 | 0.00 | 39 | 1015.8 |
| 20260504130104 | 56 | 0 | 0.0 | 0.0 | 0.00 | 0.00 | 0.00 | 62 | 1017.1 |
| 20260504120110 | 46 | 0 | 0.0 | 0.0 | 0.00 | 0.00 | 0.00 | 81 | 1017.1 |
| 20260504100115 | 42 | 0 | 0.0 | 0.0 | 0.00 | 0.00 | 0.00 | 86 | 1016.7 |
| 20260504081556 | 43 | 0 | 0.0 | 0.0 | 0.00 | 0.00 | 0.00 | 85 | 1016.5 |
| 20260504060104 | 45 | 0 | 0.0 | 0.0 | 0.00 | 0.00 | 0.00 | 80 | 1017.0 |
| 20260504050105 | 48 | 0 | 0.0 | 0.0 | 0.00 | 0.00 | 0.00 | 74 | 1017.1 |
| 20260504044557 | 47 | 0 | 0.0 | 0.0 | 0.00 | 0.00 | 0.00 | 77 | 1017.1 |
| 20260504043104 | 48 | 0 | 0.0 | 0.0 | 0.00 | 0.00 | 0.00 | 75 | 1017.1 |
| 20260504041558 | 50 | 0 | 0.0 | 0.0 | 0.00 | 0.00 | 0.00 | 71 | 1016.9 |
| 20260504040104 | 50 | 0 | 0.0 | 0.0 | 0.00 | 0.00 | 0.00 | 70 | 1016.7 |
| 20260504034618 | 50 | 0 | 0.0 | 0.0 | 0.00 | 0.00 | 0.00 | 69 | 1016.7 |
| 20260504033104 | 51 | 0 | 0.0 | 0.0 | 0.00 | 0.00 | 0.00 | 68 | 1016.8 |
| 20260504031602 | 51 | 0 | 0.0 | 0.0 | 0.00 | 0.00 | 0.00 | 66 | 1017.0 |
| 20260504030058 | 51 | 0 | 0.0 | 0.0 | 0.00 | 0.00 | 0.00 | 66 | 1017.1 |
| 20260504024559 | 52 | 0 | 0.0 | 0.0 | 0.00 | 0.00 | 0.00 | 66 | 1016.8 |
| 20260504023057 | 52 | 0 | 0.0 | 0.0 | 0.00 | 0.00 | 0.00 | 64 | 1017.0 |
| 20260504021600 | 54 | 0 | 0.0 | 0.0 | 0.00 | 0.00 | 0.00 | 62 | 1016.7 |
| 20260504020112 | 54 | 0 | 0.0 | 0.0 | 0.00 | 0.00 | 0.00 | 60 | 1016.6 |
| 20260504014600 | 56 | 0 | 0.0 | 0.0 | 0.00 | 0.00 | 0.00 | 57 | 1016.4 |
| 20260504013105 | 58 | 0 | 0.0 | 0.0 | 0.00 | 0.00 | 0.00 | 50 | 1016.0 |
| 20260504011559 | 58 | 0 | 0.0 | 0.0 | 0.00 | 0.00 | 0.00 | 48 | 1016.0 |
| 20260504010055 | 59 | 0 | 0.0 | 0.0 | 0.00 | 0.00 | 0.00 | 48 | 1015.7 |
| 20260504004559 | 60 | 0 | 0.0 | 0.0 | 0.00 | 0.00 | 0.00 | 47 | 1015.8 |
| 20260504003058 | 61 | 0 | 0.0 | 0.0 | 0.00 | 0.00 | 0.00 | 45 | 1015.7 |
| 20260504001601 | 63 | 0 | 0.0 | 0.0 | 0.00 | 0.00 | 0.00 | 42 | 1015.5 |
| 20260504000058 | 65 | 0 | 0.0 | 0.0 | 0.00 | 0.00 | 0.00 | 39 | 1015.5 |
| 20260503234555 | 68 | 0 | 0.0 | 0.0 | 0.00 | 0.00 | 0.00 | 36 | 1015.5 |
| 20260503233058 | 70 | 0 | 0.0 | 0.9 | 0.00 | 0.00 | 0.00 | 33 | 1015.2 |
| 20260503231601 | 70 | 0 | 0.0 | 0.9 | 0.00 | 0.00 | 0.00 | 32 | 1015.3 |
| 20260503230113 | 69 | 0 | 0.0 | 0.9 | 0.00 | 0.00 | 0.00 | 30 | 1015.3 |
| 20260503224604 | 69 | 0 | 0.0 | 4.3 | 0.00 | 0.00 | 0.00 | 30 | 1015.3 |
| 20260503223059 | 69 | 263 | 0.0 | 4.3 | 0.00 | 0.00 | 0.00 | 28 | 1015.5 |
| 20260503221556 | 69 | 0 | 0.0 | 3.5 | 0.00 | 0.00 | 0.00 | 28 | 1015.5 |
| 20260503220101 | 69 | 273 | 0.0 | 5.2 | 0.00 | 0.00 | 0.00 | 28 | 1015.6 |
| 20260503214557 | 69 | 0 | 0.0 | 7.0 | 0.00 | 0.00 | 0.00 | 28 | 1015.7 |
| 20260503213103 | 69 | 0 | 0.0 | 5.2 | 0.00 | 0.00 | 0.00 | 29 | 1015.9 |
| 20260503211612 | 69 | 0 | 0.0 | 6.1 | 0.00 | 0.00 | 0.00 | 29 | 1016.0 |
| 20260503210057 | 68 | 215 | 0.9 | 3.5 | 0.00 | 0.00 | 0.00 | 29 | 1016.2 |
| 20260503204557 | 68 | 0 | 0.0 | 7.8 | 0.00 | 0.00 | 0.00 | 28 | 1016.4 |
| 20260503203057 | 67 | 0 | 0.9 | 7.0 | 0.00 | 0.00 | 0.00 | 30 | 1016.4 |
| 20260503201557 | 67 | 0 | 0.9 | 5.2 | 0.00 | 0.00 | 0.00 | 30 | 1016.6 |
| 20260503200113 | 66 | 279 | 0.0 | 6.1 | 0.00 | 0.00 | 0.00 | 31 | 1017.2 |
| 20260503194604 | 66 | 0 | 1.7 | 6.1 | 0.00 | 0.00 | 0.00 | 31 | 1017.1 |
| 20260503193104 | 66 | 144 | 0.0 | 7.0 | 0.00 | 0.00 | 0.00 | 33 | 1017.5 |
| 20260503191606 | 67 | 206 | 0.9 | 7.8 | 0.00 | 0.00 | 0.00 | 30 | 1017.5 |
| 20260503190056 | 67 | 0 | 0.0 | 2.6 | 0.00 | 0.00 | 0.00 | 31 | 1017.7 |
| 20260503184613 | 64 | 0 | 0.0 | 7.0 | 0.00 | 0.00 | 0.00 | 30 | 1017.8 |